Wind_Speed
17 16 16 18 21 23 25 26 27 28 29 29 29 27 26 26 26 28 30 30 28 25 23 23 23 23 22 23 25 27 27 23 20 20 21 20 20 21 21 20 15 11 9 6 4 5 5 6 6 7 10 12 14 14 13 13 12 11 10 9 9 8 9 10 12 13 14 15 15 15 15 14 14 13 12 12 12 12 13 14 15 15 15 15 14 15
14 13 14 18 21 23 24 25 27 28 29 29 28 25 25 25 26 28 28 26 24 22 21 22 22 21 21 22 24 24 22 18 16 17 19 19 19 20 20 18 13 9 8 5 3 4 5 6 7 8 10 12 13 14 14 14 14 13 13 12 11 10 11 12 12 12 14 15 16 17 16 16 14 13 12 12 11 10 11 12 13 15 15 15 15 15
15 14 17 20 21 22 23 25 27 28 28 26 24 23 24 24 25 26 25 23 22 21 21 23 22 20 20 20 21 20 18 16 16 16 17 18 19 19 18 16 11 8 8 6 5 5 5 6 8 9 10 12 14 15 16 16 16 16 15 14 12 12 13 13 13 13 14 16 17 18 17 16 15 13 12 13 11 9 9 10 11 13 15 16 16 16
17 18 20 20 19 20 21 23 25 25 24 24 23 23 24 25 26 26 24 23 23 22 22 24 23 21 19 19 18 18 18 18 16 15 17 19 19 17 16 13 8 7 8 8 6 6 6 6 7 8 10 12 13 14 16 17 18 17 16 14 13 14 14 14 14 13 15 17 18 18 18 17 16 14 12 13 12 9 8 8 9 11 13 15 17 17
20 20 20 20 19 18 19 20 21 21 21 22 22 23 24 25 26 26 25 25 25 23 23 24 24 23 21 19 18 18 19 18 16 15 15 15 15 14 13 10 6 8 10 9 7 7 6 5 6 7 8 10 11 12 14 15 15 15 14 13 14 15 15 15 14 14 15 16 17 18 18 18 18 16 13 14 13 10 9 8 8 9 11 14 17 18
21 20 20 19 19 19 19 19 19 19 20 20 20 22 24 26 26 26 26 27 28 25 24 25 25 23 22 22 22 22 22 20 18 16 14 14 13 12 12 9 8 10 11 11 9 8 6 5 7 9 8 9 10 10 11 11 11 12 12 13 14 14 14 14 14 14 15 16 16 17 18 18 18 16 14 15 14 11 10 9 8 10 12 15 17 18
21 20 20 20 19 20 19 19 19 20 20 19 19 21 24 26 27 27 26 28 29 28 26 26 26 24 22 23 24 25 25 23 20 16 14 13 12 12 12 11 11 12 13 13 12 9 7 6 10 11 9 9 10 10 10 10 10 11 12 13 14 14 14 14 14 15 15 16 16 15 16 16 16 15 14 15 14 13 13 12 12 16 17 17 17 19
20 20 20 20 20 20 19 20 20 21 21 20 20 22 26 28 27 28 27 27 29 29 28 27 27 26 24 23 24 24 25 23 20 17 14 12 11 12 14 14 14 15 16 16 14 11 10 10 11 13 13 11 10 11 11 11 11 12 12 13 13 13 13 12 12 13 14 14 15 15 16 15 15 14 14 16 16 17 17 17 19 22 20 19 18 18
21 21 21 21 21 20 20 21 22 23 23 23 23 24 27 29 29 29 29 28 29 30 29 28 27 27 26 25 23 23 22 20 18 16 14 13 13 14 16 17 18 18 19 19 17 15 14 13 12 13 16 13 10 10 11 11 10 11 11 11 11 10 10 9 10 11 12 12 14 15 16 16 16 15 16 18 20 22 22 23 24 23 20 18 18 18
22 22 22 22 21 20 21 23 24 25 24 24 25 25 27 29 30 31 30 30 30 30 29 29 28 28 28 27 24 23 22 21 19 17 16 16 17 17 18 20 20 21 21 21 20 19 18 17 14 14 16 15 12 11 11 11 11 11 11 11 10 10 10 11 11 12 13 13 15 16 18 19 18 18 18 20 22 24 25 26 26 23 20 18 17 17
25 24 24 23 22 21 23 24 25 25 24 24 25 26 27 29 31 33 33 32 31 30 30 31 30 29 28 27 26 25 24 23 22 20 19 20 20 20 22 23 23 24 24 25 24 23 22 20 17 15 16 15 14 13 13 13 13 13 13 12 12 12 12 13 14 15 16 16 17 19 20 21 21 20 20 21 23 24 26 26 25 23 20 18 16 17
26 25 25 24 23 23 23 24 25 25 25 24 24 26 28 29 31 33 34 34 32 31 31 32 32 31 30 29 29 28 27 26 25 23 22 23 23 23 24 25 26 27 28 28 28 26 26 24 20 19 19 17 16 16 16 15 15 15 14 14 14 14 14 16 17 18 18 18 20 21 23 23 23 22 21 22 23 24 25 24 21 19 17 15 15 17
26 26 26 26 25 24 24 24 26 26 26 25 25 26 28 29 32 33 35 36 35 33 33 33 33 33 32 31 31 30 30 29 27 26 25 24 23 22 23 24 26 28 29 30 30 28 29 29 25 23 22 20 18 18 18 18 17 15 14 14 14 14 16 17 18 18 18 19 20 20 22 23 24 24 22 22 22 21 21 19 16 14 13 13 15 16
27 29 29 29 28 26 25 25 26 26 26 26 25 27 28 30 32 33 35 37 37 36 34 35 35 35 35 34 32 32 33 32 32 30 29 27 24 22 22 23 24 26 29 30 30 31 33 34 31 28 25 22 21 21 21 20 17 14 13 13 13 15 17 17 17 17 17 18 19 20 21 22 23 25 24 23 22 20 19 16 12 11 11 12 14 15
28 30 31 30 29 27 26 25 25 26 26 25 25 26 27 29 30 30 32 34 35 37 36 36 37 37 37 36 35 35 35 35 35 34 32 31 30 27 25 26 26 27 29 30 31 34 35 36 35 32 26 23 24 24 23 20 17 14 14 13 14 15 17 16 16 16 16 16 18 21 23 21 20 20 20 20 21 20 19 17 13 11 12 12 13 15
27 29 30 30 29 27 25 25 26 26 26 25 25 25 24 25 27 26 27 29 31 34 35 37 38 38 38 37 37 37 36 36 36 35 34 34 33 30 28 28 29 29 30 31 33 35 35 35 34 31 25 22 23 23 22 19 16 15 14 14 15 16 16 15 14 15 16 17 19 21 22 21 19 19 18 19 21 18 16 16 15 13 13 13 13 15
26 28 30 30 29 27 25 25 26 25 24 24 24 23 21 21 23 24 25 27 29 30 32 35 37 37 37 37 37 38 37 36 36 36 36 35 33 31 28 27 29 30 30 31 33 36 35 32 29 27 23 21 21 20 19 17 16 16 16 16 17 17 16 15 15 18 21 21 22 22 19 19 19 19 18 18 18 15 15 19 20 17 15 14 14 15
27 27 29 30 28 26 24 24 25 25 24 24 23 23 22 21 23 24 25 27 29 29 30 32 34 35 36 36 37 37 37 37 36 37 36 33 30 29 27 26 27 28 29 31 33 35 33 29 27 25 21 20 20 19 17 17 17 18 18 18 17 17 16 16 19 23 26 26 26 23 19 17 17 16 14 15 16 14 17 23 24 21 18 15 15 16
28 27 28 30 29 26 25 24 24 25 26 25 23 23 23 22 24 25 26 27 28 28 29 30 31 32 33 33 34 35 35 35 34 34 33 30 26 24 25 26 26 28 32 33 33 32 30 28 28 26 23 21 19 18 17 18 18 18 18 18 17 17 17 18 20 21 23 24 23 21 19 18 16 15 13 13 15 15 18 25 27 23 20 16 15 16
27 26 26 28 27 25 25 25 25 26 27 25 23 25 26 25 25 26 27 27 27 28 28 29 30 30 30 30 30 30 30 30 29 29 28 26 23 22 24 25 26 28 31 32 31 31 30 29 30 29 25 22 19 18 18 18 18 17 17 17 17 17 18 21 21 20 20 20 19 18 18 18 15 14 14 14 15 15 18 23 22 18 15 14 15 16
26 25 24 24 25 24 24 24 25 26 27 27 25 24 26 26 27 27 27 28 28 28 29 29 29 29 28 28 26 24 23 23 22 23 24 24 23 23 23 23 25 28 31 32 31 31 31 30 29 27 24 21 19 19 19 18 16 16 17 17 18 18 19 21 22 21 20 19 17 16 16 16 13 11 13 14 15 16 15 16 15 13 12 12 13 15
27 25 23 23 24 24 24 24 25 25 27 27 26 25 26 27 28 28 28 28 28 28 27 27 27 26 25 24 22 20 18 17 17 18 20 22 22 22 20 21 24 25 27 30 28 25 24 24 23 21 20 19 19 19 18 17 16 17 17 18 18 19 20 22 23 24 23 19 16 14 13 12 11 10 11 13 15 17 16 15 16 16 14 14 16 17
28 26 24 24 26 26 25 26 26 25 26 27 27 27 27 29 29 29 28 27 27 26 25 25 25 24 23 22 21 19 17 16 16 16 18 19 20 21 21 21 22 22 21 23 22 19 18 18 17 17 18 20 20 19 17 16 16 16 18 19 20 20 22 25 26 26 24 20 15 13 12 10 10 11 12 12 13 14 14 15 17 17 17 19 20 21
30 29 27 27 29 29 28 27 28 27 27 28 28 28 29 30 30 29 27 26 26 26 25 24 24 24 23 22 22 20 19 17 17 17 17 18 19 20 21 22 22 22 20 20 19 18 16 15 15 15 17 18 20 19 18 18 18 19 21 22 23 24 25 27 27 26 24 21 17 15 14 12 12 13 13 13 13 12 12 13 15 17 19 23 24 23
33 33 32 31 31 32 31 30 30 29 29 29 29 29 29 29 29 28 27 27 27 28 26 24 24 24 23 23 22 21 20 19 19 18 19 19 20 20 21 22 22 21 20 19 18 18 17 16 16 16 16 16 17 18 18 19 20 22 23 25 26 26 26 27 26 25 24 22 19 17 15 14 14 15 16 16 15 14 13 13 15 17 21 25 26 25
36 36 35 35 34 33 33 32 31 30 29 29 30 30 30 29 29 29 28 29 29 29 27 26 25 24 23 23 22 21 21 20 20 20 20 20 20 20 21 21 20 20 20 20 20 20 21 20 20 20 20 20 19 19 19 20 21 22 22 24 25 25 25 26 25 23 23 22 21 20 18 17 16 17 18 18 17 16 15 16 18 20 22 24 26 25
38 38 38 37 36 36 35 34 33 32 31 30 30 31 31 32 32 32 32 31 31 30 29 29 27 25 24 23 23 22 22 22 22 22 21 20 20 20 21 21 21 22 22 22 23 24 24 24 23 22 22 22 22 22 21 21 22 22 23 24 24 25 25 26 26 25 23 22 22 22 22 22 21 20 19 18 17 16 16 18 19 21 23 24 25 28
38 36 36 36 36 36 37 38 37 37 36 34 32 31 32 34 36 36 36 35 34 33 31 31 30 27 25 25 25 24 23 23 24 24 23 23 23 23 23 24 24 24 24 24 24 25 25 24 23 23 24 24 24 24 24 24 25 26 26 27 27 27 27 28 30 29 28 26 27 28 28 28 26 24 21 20 20 20 19 19 20 20 22 23 24 28
36 35 35 35 35 36 38 39 41 41 40 39 37 36 36 37 39 40 40 38 37 36 34 33 32 29 27 28 28 28 27 27 26 26 26 27 27 27 26 26 26 26 25 25 25 26 26 26 27 28 28 28 28 28 29 29 30 31 32 31 31 31 30 31 32 33 34 33 34 35 34 32 30 29 28 28 27 26 24 22 22 22 22 23 22 24
31 32 31 31 33 35 36 38 41 43 44 43 42 41 40 40 39 40 43 43 40 38 36 34 33 32 31 31 32 32 31 31 30 30 30 31 31 30 30 29 29 29 29 30 30 31 31 31 32 32 32 33 33 34 34 34 35 35 35 35 34 34 34 34 35 36 38 39 40 40 39 37 34 32 33 32 31 31 29 26 25 24 24 25 24 23
31 30 29 29 30 31 32 33 36 41 44 45 44 42 43 43 40 39 42 44 41 38 36 36 35 35 35 34 34 35 35 34 33 33 33 34 34 33 33 33 33 33 33 34 34 35 35 35 35 36 36 37 38 38 38 38 38 38 38 38 38 38 38 38 38 39 40 42 43 43 43 40 37 35 34 34 34 33 33 31 29 28 27 27 27 28
34 32 30 28 29 30 30 29 30 33 37 38 37 36 37 40 40 39 40 41 38 35 33 35 36 36 36 36 35 35 36 35 35 35 35 35 36 36 36 37 37 37 37 37 38 38 38 38 39 39 40 41 42 42 42 42 41 41 41 40 40 40 40 41 41 41 42 43 44 44 43 41 39 38 37 36 35 35 36 35 34 33 32 31 30 31
32 30 29 29 28 30 31 32 32 32 33 32 31 30 30 32 33 34 35 37 37 35 33 33 34 36 36 36 36 36 36 37 37 37 37 38 38 39 39 40 40 40 41 41 42 42 42 42 43 43 44 44 45 45 45 45 44 44 44 43 43 43 43 43 43 43 43 44 44 44 43 42 41 41 40 39 38 37 37 37 36 35 34 35 34 33
32 31 31 32 31 31 32 33 34 36 37 37 35 35 34 33 32 32 32 33 34 35 34 33 33 34 36 36 37 37 38 38 39 39 39 40 40 41 42 43 43 44 45 45 46 46 46 46 46 46 46 46 47 47 47 46 47 47 46 45 44 42 42 42 43 43 44 44 45 45 44 44 44 43 42 41 40 39 38 37 37 36 35 36 36 36
35 34 33 32 33 33 32 33 34 36 37 39 39 40 40 39 38 36 35 34 34 35 35 35 36 36 37 38 39 39 40 41 41 42 42 42 43 44 45 46 47 48 49 49 49 49 50 50 50 50 49 49 49 48 48 48 48 47 47 45 43 41 41 41 41 41 42 43 44 45 45 46 46 45 44 43 41 40 39 38 38 38 38 38 37 38
37 36 34 32 33 34 34 35 36 36 36 38 39 40 40 40 39 38 37 36 36 36 35 36 37 38 39 40 41 42 42 43 44 45 46 46 47 47 48 49 50 51 51 52 52 52 52 52 53 53 52 51 49 48 48 49 49 48 48 47 46 46 46 45 43 42 42 42 43 44 45 46 46 46 45 44 43 42 41 40 40 40 40 40 40 40
41 40 39 38 39 38 38 38 39 39 39 39 39 40 40 39 39 38 37 37 36 36 36 36 37 38 39 40 41 43 44 45 46 47 48 49 49 50 51 51 52 52 53 54 54 55 55 55 56 57 56 55 54 53 53 54 52 51 50 49 48 49 48 46 45 43 41 40 41 41 42 43 44 45 44 44 43 43 43 42 43 43 43 43 43 43
42 43 43 42 42 41 40 40 41 41 41 40 40 40 40 39 39 38 38 38 38 38 37 37 37 38 39 40 42 43 45 46 47 48 49 50 51 52 53 54 54 55 55 56 57 58 58 59 59 60 60 60 59 58 57 56 55 53 52 50 49 49 47 46 46 43 40 38 38 38 40 41 42 42 42 42 42 42 42 42 42 42 42 43 43 43
40 41 41 41 42 42 41 40 40 41 41 40 40 39 38 38 38 38 38 38 38 38 38 38 37 38 39 40 41 43 44 46 47 49 50 51 53 54 54 55 56 57 58 59 59 60 60 61 61 62 62 62 61 60 59 58 57 56 55 53 52 51 49 48 47 46 45 44 41 39 39 40 41 41 42 42 42 42 42 42 42 41 41 42 42 42
39 39 40 41 41 42 41 41 41 42 42 42 41 40 39 39 39 39 40 39 38 38 38 38 39 40 41 42 43 44 45 46 48 49 51 52 54 55 56 56 58 59 60 61 61 62 62 63 63 63 63 63 62 62 62 61 60 59 58 57 56 54 53 52 51 50 51 51 50 47 43 40 39 39 40 41 42 43 43 43 42 42 42 43 43 42
42 42 42 43 43 43 43 43 43 43 43 43 42 41 41 41 42 42 42 40 40 40 40 41 42 43 44 45 46 47 47 48 49 50 51 52 54 55 56 57 57 59 60 61 61 62 62 63 63 63 63 63 63 63 63 62 62 61 61 59 58 57 56 55 56 55 55 56 57 56 54 51 48 45 43 42 41 41 41 41 41 41 42 43 43 43
46 46 45 45 44 44 44 44 44 44 44 43 42 42 43 43 44 43 42 41 41 42 42 43 44 45 46 47 47 48 48 49 50 50 51 52 53 54 55 56 57 58 59 59 60 61 61 61 62 62 62 63 63 63 63 62 62 61 61 60 60 59 58 57 57 57 57 57 57 58 59 58 56 53 50 47 45 43 42 42 41 40 40 41 42 43
46 47 46 46 45 45 45 45 45 45 45 44 44 44 44 44 44 44 43 44 44 44 44 44 44 45 45 46 47 47 48 49 50 50 51 52 53 54 55 56 56 57 58 59 60 61 61 61 62 62 62 63 63 63 63 63 63 62 62 61 61 60 60 59 58 57 57 57 57 57 58 57 56 55 53 51 49 48 47 46 44 42 39 40 43 45
44 45 46 46 46 45 45 45 45 45 45 44 44 44 44 44 44 43 43 43 42 42 42 42 42 43 43 44 44 45 46 48 48 49 49 50 51 52 53 54 55 56 58 58 60 60 61 62 62 62 62 62 62 63 63 64 63 63 62 62 62 62 61 61 60 59 58 57 57 57 58 58 57 57 57 56 55 54 53 51 48 47 45 44 45 46
40 41 43 43 43 43 43 43 43 43 42 42 42 41 40 40 40 39 39 39 39 39 40 40 41 41 42 42 43 43 44 45 46 47 47 47 48 49 50 52 54 56 57 57 58 59 60 61 61 61 61 61 62 63 63 64 64 63 62 62 62 62 62 62 63 62 62 61 59 59 59 59 58 57 57 58 58 57 55 52 50 51 52 51 50 50
36 38 39 40 41 41 41 40 39 37 35 35 35 35 36 36 36 36 36 37 37 39 40 40 41 42 43 43 44 44 45 46 48 50 50 50 50 51 53 54 55 56 57 58 59 60 61 62 62 63 63 63 64 65 65 66 67 66 65 65 65 65 65 64 64 64 64 64 63 63 62 62 61 60 59 59 58 56 55 54 53 53 54 55 55 57
31 33 34 36 37 38 39 39 38 36 34 32 31 31 31 32 33 35 36 38 38 39 41 42 43 44 45 45 46 48 49 50 52 53 54 54 55 57 58 58 57 57 58 58 59 60 61 62 62 63 64 64 65 66 67 68 68 68 68 69 69 70 69 69 68 67 67 66 66 66 66 65 65 63 63 62 60 59 59 58 57 57 56 56 56 58
26 27 29 30 32 33 35 36 37 38 38 38 38 37 35 33 33 34 35 37 38 39 41 42 43 44 45 46 48 50 52 54 55 56 56 57 59 59 58 57 56 55 56 57 58 59 60 60 61 62 63 64 64 66 66 67 67 68 68 69 69 70 71 71 71 71 70 70 69 69 69 68 68 67 66 65 63 63 62 61 60 61 62 61 61 61
23 24 25 26 27 28 30 31 32 33 35 37 39 41 43 43 42 42 42 42 42 43 44 45 46 48 49 51 52 54 55 56 56 56 56 56 55 55 54 54 54 54 55 56 57 58 59 60 61 61 62 63 63 65 66 66 67 68 68 68 69 70 70 70 70 70 70 69 70 70 69 69 68 68 68 67 64 63 63 61 60 61 61 61 61 62
20 21 22 23 24 24 26 27 28 30 31 33 35 37 40 42 44 46 47 48 48 49 50 51 52 53 53 52 52 52 52 52 52 52 52 52 51 52 52 52 53 54 55 56 57 57 58 59 60 60 60 61 63 64 65 66 67 68 69 70 71 71 71 70 70 70 69 68 68 67 67 67 66 65 65 65 65 64 62 60 60 61 61 60 59 58
16 17 18 19 20 21 23 24 25 26 28 29 30 31 33 35 36 38 40 41 42 43 44 45 46 47 47 47 47 47 47 48 48 48 49 49 50 50 51 52 52 53 54 55 55 55 55 56 56 57 57 58 59 60 61 62 64 66 67 69 70 71 72 72 72 71 70 69 68 67 66 66 65 64 63 63 63 63 61 58 56 56 57 57 57 56
Wind_Direction
228 230 233 234 232 228 227 227 228 230 231 232 232 231 233 235 235 237 241 245 247 247 245 243 239 235 232 233 236 239 242 242 241 243 242 238 233 230 230 232 241 258 271 272 278 289 289 282 272 256 251 253 256 258 255 252 251 254 259 261 259 261 266 268 266 268 271 274 277 277 276 275 274 275 276 280 286 289 288 285 282 281 279 276 274 272
225 226 228 228 227 227 227 227 228 230 232 233 232 231 232 232 232 235 239 243 244 238 232 233 229 223 223 228 234 239 243 243 238 236 237 237 234 229 227 230 242 265 274 274 296 299 284 281 278 266 254 248 249 253 253 255 259 262 268 269 269 270 271 270 267 267 270 273 275 276 276 277 277 277 279 279 280 284 285 283 280 278 276 274 273 271
220 220 223 224 225 227 228 227 229 231 233 232 231 230 229 228 228 231 235 236 234 225 219 224 222 216 218 224 232 237 237 232 222 219 224 229 229 227 229 233 245 265 275 286 303 308 310 305 291 276 261 250 247 248 251 256 259 262 267 270 270 271 270 269 268 267 270 273 276 277 278 280 281 283 284 282 280 282 288 291 289 284 280 278 275 274
221 220 222 223 224 227 229 230 232 233 233 231 228 227 225 223 222 224 226 225 225 219 214 219 219 213 214 220 227 229 226 220 211 212 221 228 231 232 234 236 245 266 277 288 298 316 329 323 310 292 272 257 251 251 253 257 261 264 266 267 267 267 266 266 267 269 273 278 282 284 286 286 286 287 286 280 273 270 277 287 295 295 291 286 280 276
227 225 224 224 222 224 228 233 235 235 234 232 230 228 223 220 219 219 218 217 220 219 214 219 221 216 213 214 218 219 217 214 210 215 225 232 237 240 244 247 254 268 278 286 295 318 327 322 322 305 277 261 258 259 262 263 265 266 266 264 262 261 260 261 265 271 277 281 285 288 291 293 292 291 284 276 272 269 271 275 284 294 296 292 286 278
231 229 228 226 224 224 226 230 233 233 233 232 230 226 222 220 219 218 217 215 218 219 217 220 223 221 215 209 212 218 220 218 216 216 222 229 234 240 250 260 265 270 280 287 293 310 314 308 312 299 268 253 257 260 264 266 264 262 258 256 254 253 252 254 261 270 275 279 283 287 291 294 295 290 279 274 276 274 269 267 278 295 298 295 290 282
233 232 232 231 229 228 229 230 232 232 230 226 222 219 219 220 221 220 218 216 217 219 221 223 225 226 220 211 215 223 226 227 226 223 223 227 234 243 254 262 268 274 282 285 288 296 295 299 304 291 266 247 248 252 253 254 253 250 249 249 249 249 249 251 256 263 270 276 281 284 289 294 295 286 272 268 272 271 264 260 278 298 299 291 286 283
234 235 235 236 235 234 232 231 232 232 228 221 216 215 217 220 222 222 221 218 217 219 222 225 227 228 225 220 223 228 232 236 238 237 237 240 244 251 258 263 268 273 279 281 284 285 283 294 299 284 269 254 247 250 250 249 247 245 246 247 248 250 252 252 255 259 267 275 280 283 286 291 291 280 265 262 266 269 266 263 276 293 295 285 278 277
235 236 236 238 238 237 234 231 232 233 229 223 220 217 218 220 222 223 224 221 220 220 219 221 226 227 227 230 233 237 241 245 245 246 248 251 254 257 261 263 266 270 274 277 280 280 280 291 295 276 267 263 254 250 247 243 243 243 244 245 246 249 253 257 259 262 266 273 278 279 280 283 283 276 266 264 268 272 272 272 280 289 291 285 278 274
234 235 236 237 237 236 234 234 234 233 230 227 225 222 221 222 222 223 225 224 224 223 219 219 223 225 228 234 237 241 248 250 248 248 248 249 253 259 263 265 267 268 271 274 277 279 279 285 288 271 263 264 256 243 235 235 240 243 243 243 244 248 255 261 264 264 265 267 270 273 274 275 276 274 270 269 271 274 275 277 281 285 287 286 282 277
235 235 236 236 235 235 235 237 239 237 233 230 229 228 228 227 226 224 224 226 226 225 224 222 222 224 227 232 238 241 246 249 249 249 249 253 258 262 266 268 267 267 269 272 275 277 278 280 281 269 261 263 256 242 235 235 237 239 242 245 249 254 261 264 265 264 263 262 262 263 266 267 266 266 268 270 272 273 273 273 275 278 282 283 282 281
239 239 237 236 234 235 236 238 241 242 240 235 233 233 233 232 231 228 225 227 226 224 225 225 224 225 225 228 235 241 246 249 250 251 253 259 264 266 267 265 264 265 266 270 274 275 276 276 275 267 261 261 257 246 239 237 238 242 247 253 258 261 263 263 263 263 264 264 263 263 265 266 265 263 265 270 274 275 275 273 271 272 276 279 281 283
241 241 239 237 236 235 237 238 240 243 243 241 237 235 234 234 234 232 228 227 227 225 226 226 226 228 228 230 233 237 244 248 249 252 255 259 264 268 268 264 263 263 265 269 271 272 273 272 269 263 257 255 252 245 243 244 246 248 252 257 261 263 262 262 262 264 266 266 266 266 267 267 266 264 264 271 278 281 283 280 271 268 276 279 281 282
234 237 238 238 236 235 236 239 241 244 245 244 239 233 230 231 233 234 231 229 229 228 228 228 228 230 233 237 236 236 240 244 247 251 254 255 260 265 267 266 264 262 263 266 266 266 267 266 264 258 251 249 249 246 246 250 251 252 256 259 261 261 260 261 263 265 267 270 271 269 267 268 266 262 260 265 273 278 283 282 270 272 282 279 278 279
228 231 235 236 236 236 237 239 242 244 245 243 236 231 228 230 232 235 235 234 233 233 233 233 233 235 238 241 243 242 242 245 249 252 254 256 260 260 261 263 263 260 260 261 262 264 263 265 266 258 246 245 246 245 248 251 253 258 264 264 259 255 257 260 263 267 272 280 285 281 274 269 265 261 257 259 267 271 275 278 275 281 282 270 267 268
231 229 232 234 234 235 236 239 241 242 243 242 238 234 234 235 235 236 237 238 237 237 238 238 239 242 244 245 248 249 249 251 254 256 259 262 264 261 258 259 258 257 259 260 262 263 264 271 270 253 240 241 241 242 249 253 257 266 268 263 258 257 259 262 265 272 280 286 290 287 278 270 265 264 262 264 272 274 272 272 272 274 269 256 254 255
232 230 232 233 233 233 234 237 239 238 240 242 242 241 240 240 238 237 237 239 240 241 242 243 245 247 250 251 253 255 256 257 259 263 266 268 267 262 256 253 252 253 255 256 259 260 263 268 258 238 235 241 241 245 253 256 262 268 265 260 260 263 264 267 270 273 276 279 283 283 278 274 272 270 268 270 275 276 267 262 261 262 256 245 245 249
232 230 231 231 233 236 238 239 239 238 239 242 245 246 245 242 239 236 235 238 241 243 244 247 249 251 254 256 258 260 262 263 264 267 269 268 265 259 252 248 245 246 248 250 254 253 252 252 244 238 246 250 248 252 253 258 264 264 260 258 261 264 265 272 279 278 274 275 282 285 282 282 277 268 267 268 264 266 266 261 257 257 251 239 241 247
234 230 228 229 230 235 241 242 240 239 240 242 245 246 246 244 242 239 237 238 241 244 246 249 252 255 257 260 262 263 265 266 265 265 265 262 258 252 247 244 242 243 244 245 247 244 241 242 243 250 259 258 257 257 253 258 260 255 254 254 257 261 265 274 286 292 288 284 287 289 286 288 278 258 255 258 252 257 267 261 253 250 244 234 237 244
232 227 226 228 230 233 238 240 238 238 241 244 244 244 246 245 243 242 240 240 242 245 247 249 252 254 257 260 263 265 265 264 262 259 257 255 249 242 240 241 243 245 243 239 239 242 245 248 250 255 261 262 260 257 254 254 251 249 251 252 256 262 268 276 285 293 294 290 290 289 289 296 290 260 252 262 262 265 271 263 250 243 242 239 241 242
230 226 224 226 230 233 236 239 239 239 243 247 247 246 245 244 243 242 241 241 241 243 246 248 250 253 256 259 262 265 264 261 256 251 249 247 245 241 240 243 245 248 245 241 242 249 253 255 254 254 256 257 254 252 250 248 248 253 257 259 262 265 270 278 284 288 288 286 288 291 294 303 301 274 260 267 271 272 276 271 261 259 261 258 254 250
231 227 222 222 228 232 234 237 238 238 241 246 248 246 244 243 243 242 241 243 244 245 248 251 253 255 258 260 262 264 263 257 247 242 243 244 245 244 243 244 244 246 246 243 244 252 255 254 252 249 248 248 247 245 243 245 252 258 262 265 267 267 270 277 284 287 286 282 284 290 296 300 295 282 276 277 277 277 279 277 273 271 268 263 262 261
232 228 221 219 224 228 230 233 236 236 238 242 244 244 243 242 241 241 242 245 248 249 251 253 254 257 260 263 266 269 268 259 246 240 242 243 246 246 243 243 244 248 249 245 248 262 267 260 256 256 256 254 249 245 242 243 249 257 263 266 266 267 271 276 281 283 281 279 281 288 293 290 281 280 284 286 286 283 277 272 271 271 269 268 268 264
232 231 225 221 223 226 227 230 234 235 234 237 241 245 246 243 241 242 244 246 248 249 250 252 254 258 262 265 268 269 267 263 255 247 243 242 243 245 245 246 246 248 252 253 258 268 272 266 262 264 267 262 254 248 244 244 250 259 265 266 265 267 271 275 277 277 274 272 277 286 288 279 272 271 272 276 283 286 280 272 271 272 273 273 273 271
234 234 232 228 227 228 228 229 233 235 233 231 235 241 244 243 241 242 243 244 246 248 249 250 254 260 263 265 265 263 261 261 257 252 249 247 246 246 247 248 249 250 254 258 260 264 265 265 264 264 266 264 257 250 247 249 256 262 265 266 266 267 270 274 274 271 269 267 270 281 285 276 269 266 263 267 274 278 278 276 274 272 270 271 273 273
237 237 237 235 234 235 237 237 236 237 237 234 234 238 241 242 243 244 245 245 246 248 249 251 255 259 261 261 260 258 257 258 257 255 255 254 254 254 253 253 255 258 260 260 260 261 264 266 267 266 265 263 261 258 256 256 259 264 267 268 270 271 271 270 268 266 267 267 270 280 286 283 278 272 267 266 271 276 278 276 274 271 269 271 274 272
234 235 239 240 240 240 240 241 239 237 238 237 237 240 242 245 246 246 245 245 245 246 248 250 254 256 256 257 256 256 256 257 258 257 255 254 257 260 261 261 263 263 263 262 262 264 268 270 270 270 269 267 267 267 266 265 267 269 270 272 274 275 273 267 262 260 264 270 276 283 287 288 288 284 275 268 270 278 282 280 278 274 270 270 275 275
232 232 236 240 244 244 241 238 237 235 235 235 236 238 241 244 246 245 242 242 243 244 245 248 252 255 256 256 255 255 257 258 258 257 255 256 260 263 264 264 265 264 264 264 265 267 270 271 271 273 274 273 271 270 269 268 269 270 270 271 273 274 273 269 263 260 263 270 277 281 284 286 287 285 281 276 275 278 281 282 281 277 271 269 272 276
238 235 237 238 243 247 245 242 239 235 234 234 235 236 237 241 243 243 240 238 240 241 242 245 250 253 255 254 254 255 258 260 259 256 255 257 260 262 262 261 261 262 262 263 263 264 265 266 268 271 273 272 270 269 268 268 268 269 270 271 272 272 271 269 266 263 264 268 275 279 283 283 281 279 279 278 278 279 279 278 276 271 268 267 270 276
246 242 243 244 246 248 249 248 244 239 235 235 236 237 237 239 242 243 240 236 236 237 238 240 244 249 252 253 252 254 257 260 260 258 257 258 260 260 260 260 260 259 259 260 261 262 264 266 268 270 271 271 270 270 270 270 271 272 273 273 274 273 271 269 267 265 265 268 273 278 280 280 278 276 275 276 276 277 276 274 272 268 265 263 262 267
256 255 255 255 255 256 256 255 250 244 239 237 237 238 238 240 242 241 238 234 233 233 235 237 242 247 251 253 254 255 258 260 261 261 261 261 262 262 262 263 263 262 262 262 263 264 266 267 268 269 270 271 271 271 272 273 274 275 276 276 276 275 273 270 268 266 267 269 272 275 277 278 277 275 274 273 272 272 272 271 270 268 265 262 260 259
259 262 262 259 258 258 258 258 255 250 245 241 241 242 242 242 243 242 238 235 234 234 236 239 243 248 251 254 256 256 258 260 262 263 263 263 263 264 265 266 266 266 266 266 266 267 267 267 268 269 270 271 273 274 275 276 277 277 277 276 275 274 273 271 270 268 268 269 271 272 273 273 273 272 271 270 270 269 269 270 269 266 264 263 261 259
257 260 261 260 259 257 255 255 254 252 251 249 248 248 248 247 246 245 242 239 239 240 241 244 248 251 253 255 257 258 259 260 262 263 263 263 264 264 266 267 267 268 268 268 269 269 268 268 269 269 270 271 272 273 274 275 276 275 275 274 273 272 270 269 269 268 268 268 269 269 269 269 268 267 267 268 268 268 267 268 267 266 264 263 262 262
257 259 261 261 259 257 255 255 254 252 252 252 252 253 256 257 256 255 251 246 245 244 244 245 248 252 255 257 259 260 262 262 262 263 263 263 264 264 265 265 266 267 268 269 269 270 270 270 270 270 270 270 271 272 272 272 272 272 273 273 272 270 268 268 268 268 267 267 267 266 266 265 264 263 263 264 264 264 264 264 264 264 264 263 262 262
259 261 263 261 258 256 254 253 253 252 252 254 255 256 258 260 262 263 261 258 256 254 250 248 249 252 255 256 257 259 260 261 262 262 262 262 263 263 263 264 265 266 267 268 268 268 268 268 268 268 269 270 271 271 270 269 269 270 270 269 267 266 267 269 270 269 268 267 267 266 265 264 263 264 264 264 263 262 260 259 259 261 262 262 261 260
259 259 258 255 255 254 254 254 255 255 255 257 258 259 260 261 263 265 265 265 263 261 258 255 253 254 254 255 255 255 255 256 257 258 259 260 261 261 262 263 264 264 265 265 265 266 266 266 267 267 268 269 269 269 269 269 270 269 268 266 264 264 266 269 269 269 269 269 268 267 266 266 266 266 266 266 266 264 261 259 259 259 259 260 260 260
258 257 255 255 256 255 255 257 259 260 259 259 260 262 263 263 263 264 265 265 264 263 261 258 256 255 254 254 254 254 254 254 254 255 256 257 258 260 261 262 262 263 263 264 264 265 266 266 267 268 268 267 267 267 267 269 269 269 268 266 265 264 265 265 265 265 266 269 269 268 266 266 266 266 266 266 267 266 263 261 260 260 260 260 261 261
255 256 256 256 257 258 258 259 261 262 262 262 262 262 262 262 262 262 262 262 263 263 262 260 259 257 256 254 254 254 255 255 256 256 257 257 258 259 260 260 261 262 263 264 265 265 266 267 268 268 269 268 268 267 267 267 267 267 267 267 267 265 263 261 260 258 257 259 262 263 263 263 264 264 265 265 265 265 264 262 261 260 260 261 262 262
250 252 253 254 255 258 260 261 262 263 264 264 263 262 261 260 261 261 260 260 261 262 263 262 262 260 259 258 257 257 257 257 257 258 258 259 259 260 260 261 261 262 262 263 263 264 265 266 266 267 268 268 269 269 269 269 268 268 268 268 267 265 263 261 258 255 254 254 255 257 258 260 262 264 265 265 263 263 263 263 262 261 260 261 263 264
247 249 251 253 255 258 260 262 263 263 264 264 263 263 262 262 261 261 261 261 262 263 263 262 262 262 261 261 261 260 260 259 259 259 259 259 260 260 260 261 261 262 262 262 263 263 264 264 265 266 267 268 268 269 270 270 270 269 269 268 266 265 263 261 259 257 256 255 254 254 254 255 259 262 263 264 263 263 263 263 263 262 262 263 264 265
251 253 255 257 258 260 261 262 262 262 262 263 263 263 263 263 263 263 263 264 265 265 265 264 264 263 263 264 263 263 262 261 260 259 259 259 260 260 260 261 261 262 262 263 263 263 264 264 265 265 265 266 266 267 267 268 269 269 269 268 267 265 263 261 260 259 258 256 254 254 254 254 255 256 257 259 259 260 262 263 264 264 264 265 266 266
254 255 257 258 259 260 261 261 261 261 262 262 262 263 264 265 265 266 266 266 266 266 266 266 265 265 264 264 264 264 263 262 262 261 260 260 260 261 261 262 262 262 262 262 263 263 264 264 264 265 265 265 265 265 265 265 265 266 267 267 267 266 265 263 261 260 259 257 256 256 256 256 255 254 253 254 254 253 254 256 259 261 264 266 267 265
254 255 256 256 257 258 259 259 260 261 263 263 264 264 265 266 267 268 268 268 267 266 265 265 264 264 263 263 263 263 263 263 263 264 264 264 265 265 265 265 265 265 265 266 266 266 266 266 266 266 266 266 266 266 265 265 264 264 264 265 266 266 266 265 263 261 260 259 258 257 256 256 255 253 251 251 251 251 251 252 254 258 260 261 261 258
252 253 254 255 255 256 256 257 258 260 261 262 264 265 265 266 267 267 268 268 267 266 265 263 263 262 262 262 261 262 262 263 264 265 266 268 269 269 269 269 269 269 269 269 270 270 270 270 269 269 269 269 269 269 268 267 266 265 264 264 264 263 263 263 263 262 261 260 259 258 256 256 255 253 252 251 251 252 253 255 258 260 258 254 254 253
251 252 253 254 255 255 255 256 258 260 261 262 263 264 266 266 267 266 266 266 266 266 265 265 265 265 266 266 265 264 264 264 264 267 269 271 271 272 273 273 272 271 270 270 270 271 271 271 271 271 272 272 272 272 271 270 268 267 266 265 264 263 261 261 261 261 261 261 260 259 258 257 256 255 254 254 253 253 254 255 256 258 255 251 250 251
251 251 252 253 253 254 254 254 255 256 259 262 263 264 264 265 265 266 266 266 266 266 267 267 267 267 267 266 265 265 265 265 268 271 274 274 274 276 277 276 274 273 271 271 270 270 270 271 271 271 271 271 271 271 271 271 270 269 268 267 266 265 263 261 260 259 259 259 259 259 259 258 258 258 257 257 255 254 254 252 251 251 252 251 250 250
251 252 252 252 253 253 253 253 252 250 249 250 253 256 257 257 256 256 257 257 258 258 258 258 258 258 258 258 259 261 263 265 269 272 275 276 277 279 279 278 276 274 273 272 272 271 271 271 270 270 270 269 269 269 269 269 269 269 268 267 267 266 265 264 262 260 259 258 258 258 258 258 258 258 258 258 257 256 256 255 253 251 251 250 250 250
253 253 253 253 254 254 254 254 254 252 249 246 245 246 248 249 248 248 247 247 247 247 248 249 250 252 254 256 259 262 265 268 271 273 275 277 278 279 278 277 276 275 275 274 273 272 271 271 270 269 269 268 268 268 268 268 267 267 267 266 266 266 265 265 264 262 261 260 259 259 258 257 257 257 257 257 257 257 257 256 255 254 254 253 253 254
258 257 256 255 255 255 255 255 255 255 254 252 250 248 249 249 250 251 252 251 251 251 253 254 257 259 261 264 266 268 270 272 274 275 276 277 277 277 277 277 277 276 275 274 273 272 272 271 270 270 269 269 268 267 267 267 267 266 266 265 265 264 264 263 263 262 262 261 260 260 259 259 258 258 257 256 255 255 255 254 254 254 255 255 255 256
261 259 258 257 257 256 256 257 256 256 256 256 256 255 255 255 256 257 258 259 260 260 262 263 265 267 269 270 271 273 274 275 276 277 277 278 278 278 278 278 277 277 276 275 275 274 274 274 273 272 271 270 269 268 267 266 265 265 264 264 263 262 262 262 261 261 261 261 260 260 259 259 258 258 257 257 256 255 254 253 252 253 253 253 253 253
263 262 261 260 258 257 256 256 257 258 259 260 261 261 262 262 263 263 264 265 266 267 267 268 269 270 272 273 274 275 276 277 278 278 279 280 280 280 280 280 279 279 280 280 280 280 280 279 277 276 274 273 271 270 268 267 266 264 263 262 261 260 260 259 259 259 259 259 259 258 258 258 257 256 255 255 256 256 255 254 252 252 253 254 253 252
Height
5719 5721 5722 5724 5725 5726 5727 5728 5730 5730 5732 5733 5735 5737 5738 5740 5741 5742 5743 5745 5747 5749 5751 5752 5753 5754 5755 5757 5758 5759 5760 5763 5765 5766 5767 5767 5768 5768 5769 5770 5771 5772 5773 5774 5774 5774 5774 5774 5774 5774 5775 5776 5777 5777 5778 5778 5779 5779 5779 5779 5780 5780 5780 5780 5780 5781 5781 5781 5781 5782 5782 5782 5783 5783 5783 5783 5783 5783 5783 5783 5783 5783 5783 5783 5783 5783
5718 5719 5720 5721 5721 5723 5724 5726 5727 5727 5729 5731 5733 5735 5736 5738 5739 5739 5741 5743 5745 5747 5748 5749 5750 5752 5753 5755 5756 5757 5760 5762 5764 5764 5764 5765 5766 5766 5767 5768 5769 5770 5771 5772 5772 5773 5773 5773 5773 5773 5773 5774 5775 5776 5777 5778 5778 5778 5778 5779 5779 5780 5780 5779 5780 5780 5780 5780 5780 5780 5781 5781 5781 5782 5782 5781 5781 5781 5781 5781 5782 5781 5782 5782 5782 5781
5716 5716 5717 5718 5719 5721 5722 5724 5724 5725 5727 5729 5731 5733 5734 5735 5737 5738 5740 5742 5743 5745 5746 5747 5749 5750 5752 5753 5755 5756 5758 5759 5760 5761 5762 5762 5763 5764 5765 5766 5767 5769 5770 5770 5771 5771 5771 5771 5772 5772 5772 5772 5773 5774 5775 5776 5777 5777 5777 5778 5778 5779 5779 5779 5779 5779 5779 5778 5779 5779 5779 5780 5780 5781 5780 5780 5779 5779 5779 5779 5779 5780 5780 5780 5780 5780
5713 5714 5715 5716 5718 5719 5721 5722 5723 5724 5726 5727 5729 5730 5732 5733 5735 5736 5738 5740 5741 5743 5745 5746 5747 5749 5750 5752 5753 5754 5755 5757 5758 5758 5760 5760 5761 5762 5763 5764 5766 5767 5768 5769 5769 5769 5770 5770 5770 5770 5770 5770 5772 5773 5774 5775 5775 5776 5776 5777 5777 5778 5778 5778 5778 5778 5778 5777 5777 5777 5777 5778 5778 5779 5779 5778 5778 5777 5776 5776 5776 5777 5777 5778 5778 5778
5711 5712 5713 5715 5716 5718 5719 5720 5722 5723 5725 5726 5727 5729 5730 5732 5733 5735 5737 5739 5740 5741 5743 5744 5745 5747 5749 5751 5752 5753 5754 5755 5756 5757 5758 5759 5760 5760 5761 5762 5764 5765 5766 5767 5768 5768 5769 5769 5769 5768 5768 5768 5770 5771 5772 5773 5773 5774 5774 5775 5776 5776 5777 5777 5777 5777 5777 5776 5776 5775 5775 5775 5776 5776 5777 5777 5776 5776 5775 5775 5774 5774 5775 5775 5776 5776
5709 5711 5712 5713 5715 5716 5717 5719 5720 5722 5723 5725 5726 5728 5729 5730 5732 5734 5735 5737 5738 5740 5741 5742 5744 5745 5747 5749 5750 5751 5752 5753 5754 5755 5756 5757 5757 5758 5759 5761 5762 5764 5765 5766 5766 5767 5767 5768 5768 5767 5767 5767 5768 5769 5770 5771 5771 5772 5772 5773 5774 5775 5776 5776 5775 5775 5775 5775 5775 5774 5774 5773 5773 5774 5774 5774 5775 5775 5775 5774 5773 5772 5772 5773 5773 5774
5708 5710 5711 5712 5713 5714 5716 5717 5719 5720 5722 5724 5725 5726 5727 5728 5730 5732 5734 5735 5737 5738 5739 5740 5742 5743 5745 5747 5748 5749 5750 5750 5752 5753 5754 5755 5756 5757 5758 5759 5760 5762 5763 5764 5764 5765 5766 5767 5767 5766 5766 5766 5767 5768 5769 5769 5770 5770 5771 5772 5773 5774 5774 5774 5774 5774 5774 5774 5774 5774 5773 5772 5772 5772 5772 5772 5772 5773 5773 5772 5771 5771 5770 5770 5771 5771
5707 5708 5709 5710 5712 5713 5715 5716 5718 5719 5721 5722 5723 5724 5725 5726 5728 5730 5732 5734 5735 5736 5737 5739 5740 5742 5743 5744 5746 5747 5747 5748 5749 5751 5752 5753 5754 5755 5756 5758 5759 5760 5761 5762 5763 5764 5765 5766 5766 5765 5764 5765 5765 5766 5767 5768 5769 5769 5770 5771 5771 5772 5773 5773 5773 5773 5773 5773 5773 5772 5772 5771 5770 5770 5770 5770 5770 5770 5770 5770 5769 5769 5768 5768 5768 5769
5706 5707 5708 5709 5710 5712 5714 5715 5716 5717 5719 5721 5722 5722 5723 5724 5726 5728 5730 5732 5733 5734 5736 5737 5738 5740 5741 5742 5743 5744 5745 5746 5747 5748 5750 5751 5753 5754 5755 5756 5757 5758 5759 5760 5761 5762 5763 5764 5765 5764 5763 5763 5764 5764 5766 5767 5767 5768 5769 5769 5770 5771 5771 5772 5772 5772 5772 5772 5771 5770 5769 5769 5768 5768 5768 5768 5768 5768 5767 5767 5767 5767 5766 5766 5766 5766
5703 5705 5706 5707 5709 5711 5712 5713 5714 5715 5717 5719 5720 5721 5721 5722 5724 5726 5728 5729 5730 5732 5734 5735 5736 5738 5739 5740 5741 5742 5743 5744 5745 5746 5748 5749 5751 5752 5753 5754 5755 5756 5757 5758 5759 5760 5761 5763 5764 5763 5762 5762 5762 5763 5764 5765 5766 5767 5767 5768 5769 5770 5770 5770 5770 5770 5770 5769 5769 5768 5767 5766 5766 5766 5766 5766 5766 5765 5765 5765 5765 5765 5764 5764 5763 5764
5701 5703 5704 5705 5707 5709 5710 5711 5712 5713 5715 5717 5718 5719 5720 5720 5722 5723 5725 5726 5728 5729 5731 5733 5734 5736 5737 5738 5739 5739 5740 5741 5743 5744 5746 5748 5749 5750 5751 5752 5753 5754 5754 5756 5757 5758 5759 5760 5761 5761 5761 5760 5760 5761 5762 5763 5764 5764 5765 5766 5767 5768 5768 5768 5767 5767 5767 5766 5766 5765 5764 5763 5763 5764 5764 5764 5764 5763 5763 5763 5763 5763 5762 5762 5761 5761
5700 5701 5702 5704 5706 5707 5708 5709 5710 5711 5713 5715 5716 5717 5718 5718 5719 5721 5723 5724 5725 5727 5728 5730 5732 5733 5735 5736 5736 5737 5738 5739 5741 5743 5744 5746 5747 5748 5750 5750 5751 5751 5752 5753 5755 5756 5757 5758 5758 5759 5758 5758 5758 5759 5759 5760 5761 5762 5763 5764 5765 5765 5765 5764 5764 5763 5764 5763 5763 5762 5761 5761 5760 5760 5761 5761 5761 5760 5760 5760 5761 5760 5760 5759 5759 5759
5699 5699 5701 5702 5704 5705 5706 5707 5708 5709 5711 5713 5714 5715 5716 5716 5717 5718 5720 5721 5723 5724 5726 5728 5729 5731 5732 5734 5735 5735 5736 5737 5739 5741 5742 5744 5745 5746 5747 5748 5749 5749 5750 5751 5752 5753 5754 5754 5755 5755 5755 5755 5756 5756 5756 5757 5758 5760 5761 5762 5762 5762 5761 5760 5760 5760 5760 5760 5760 5759 5758 5758 5758 5757 5758 5758 5758 5757 5756 5757 5758 5758 5757 5757 5756 5756
5697 5697 5698 5700 5701 5703 5704 5705 5706 5708 5709 5711 5712 5713 5713 5714 5714 5715 5717 5718 5720 5722 5724 5725 5727 5728 5730 5731 5733 5734 5735 5736 5737 5738 5740 5741 5743 5744 5745 5745 5746 5747 5747 5748 5749 5749 5749 5749 5749 5750 5751 5752 5753 5753 5753 5754 5755 5757 5758 5758 5758 5758 5757 5757 5757 5757 5757 5756 5756 5755 5755 5754 5754 5753 5754 5755 5754 5754 5754 5754 5754 5755 5755 5755 5755 5755
5694 5695 5696 5697 5699 5701 5702 5704 5705 5706 5707 5708 5709 5709 5710 5711 5711 5713 5714 5716 5718 5720 5721 5723 5724 5725 5726 5728 5730 5732 5733 5734 5735 5736 5737 5739 5741 5742 5743 5743 5744 5744 5745 5745 5745 5745 5745 5744 5745 5746 5747 5749 5750 5750 5751 5751 5752 5753 5754 5754 5754 5754 5754 5754 5755 5755 5754 5754 5753 5752 5752 5751 5751 5750 5750 5751 5751 5751 5751 5751 5751 5752 5752 5753 5753 5753
5692 5693 5694 5695 5697 5699 5700 5701 5702 5703 5704 5705 5706 5707 5708 5709 5710 5711 5712 5714 5715 5717 5718 5719 5721 5722 5723 5725 5727 5728 5730 5731 5732 5733 5735 5736 5737 5739 5740 5740 5741 5741 5742 5742 5742 5742 5742 5742 5743 5744 5744 5745 5747 5748 5748 5749 5750 5750 5750 5751 5751 5751 5751 5752 5753 5752 5751 5751 5750 5749 5749 5749 5749 5749 5749 5749 5749 5749 5749 5748 5749 5749 5750 5750 5751 5752
5689 5691 5692 5693 5694 5696 5698 5699 5699 5701 5702 5702 5703 5704 5706 5707 5708 5709 5710 5711 5712 5713 5715 5716 5717 5718 5720 5722 5723 5725 5726 5728 5729 5730 5731 5732 5733 5734 5737 5737 5738 5738 5739 5740 5739 5738 5738 5739 5741 5741 5740 5742 5744 5745 5746 5746 5747 5747 5747 5747 5748 5748 5749 5749 5749 5748 5747 5747 5746 5745 5746 5746 5746 5747 5747 5748 5747 5747 5747 5746 5746 5747 5748 5748 5749 5749
5686 5688 5689 5690 5692 5693 5695 5696 5697 5698 5699 5699 5701 5702 5704 5705 5705 5706 5707 5708 5709 5710 5711 5713 5714 5716 5717 5718 5720 5722 5723 5725 5726 5727 5727 5728 5729 5730 5732 5734 5735 5735 5736 5735 5734 5734 5735 5736 5737 5738 5737 5739 5741 5742 5743 5743 5744 5744 5745 5745 5745 5746 5746 5746 5746 5746 5745 5744 5744 5743 5743 5743 5744 5744 5745 5745 5745 5745 5744 5743 5743 5745 5746 5746 5747 5747
5684 5685 5686 5687 5689 5690 5691 5693 5694 5695 5696 5697 5699 5700 5701 5702 5703 5704 5705 5706 5707 5708 5709 5710 5712 5713 5714 5716 5717 5718 5720 5721 5723 5723 5724 5724 5726 5727 5729 5730 5731 5731 5732 5731 5730 5731 5732 5733 5733 5734 5735 5736 5738 5739 5740 5740 5741 5742 5742 5743 5743 5743 5743 5743 5743 5743 5742 5742 5742 5741 5741 5741 5741 5742 5742 5741 5741 5742 5742 5741 5741 5742 5743 5744 5745 5745
5681 5682 5683 5684 5686 5688 5688 5690 5691 5692 5693 5695 5697 5697 5698 5700 5701 5701 5703 5704 5705 5706 5707 5709 5710 5711 5712 5713 5714 5716 5717 5718 5719 5720 5720 5721 5722 5724 5725 5726 5727 5728 5729 5729 5728 5728 5729 5730 5731 5732 5733 5734 5735 5736 5737 5738 5739 5739 5740 5741 5741 5741 5741 5739 5739 5740 5740 5739 5738 5739 5739 5739 5738 5739 5739 5739 5739 5739 5739 5738 5739 5740 5741 5742 5743 5743
5678 5679 5681 5682 5683 5684 5685 5687 5688 5690 5691 5692 5694 5695 5696 5697 5698 5699 5700 5701 5702 5704 5705 5706 5707 5708 5710 5711 5712 5713 5714 5715 5716 5717 5717 5718 5719 5720 5722 5723 5724 5725 5726 5726 5726 5726 5726 5727 5728 5729 5730 5731 5731 5733 5734 5735 5736 5737 5737 5738 5739 5739 5739 5737 5737 5738 5737 5736 5736 5737 5738 5737 5736 5736 5737 5737 5737 5737 5737 5737 5738 5739 5739 5740 5741 5742
5675 5677 5678 5679 5680 5681 5683 5684 5686 5687 5688 5689 5691 5692 5693 5694 5695 5696 5697 5698 5700 5701 5703 5704 5705 5706 5707 5708 5709 5710 5711 5712 5713 5714 5715 5715 5716 5718 5719 5720 5721 5722 5723 5723 5724 5724 5725 5725 5725 5726 5727 5728 5729 5730 5731 5732 5733 5733 5734 5735 5736 5736 5736 5735 5735 5735 5735 5735 5735 5735 5735 5735 5734 5734 5735 5735 5735 5735 5735 5735 5736 5736 5737 5738 5738 5739
5673 5674 5675 5676 5677 5678 5680 5681 5683 5684 5685 5686 5687 5689 5690 5691 5692 5693 5694 5696 5697 5699 5701 5702 5702 5703 5705 5706 5706 5707 5708 5709 5710 5711 5712 5713 5714 5715 5716 5717 5718 5719 5719 5720 5720 5721 5722 5722 5723 5723 5724 5724 5725 5726 5727 5728 5729 5730 5731 5732 5733 5734 5734 5733 5732 5733 5733 5733 5733 5734 5733 5733 5732 5732 5733 5734 5734 5733 5732 5732 5733 5733 5733 5734 5735 5736
5670 5671 5672 5673 5674 5675 5677 5679 5679 5681 5682 5684 5685 5686 5687 5688 5690 5691 5692 5694 5695 5696 5698 5699 5700 5701 5702 5703 5704 5704 5705 5706 5707 5709 5710 5710 5711 5712 5713 5714 5715 5715 5716 5716 5717 5717 5718 5719 5719 5720 5721 5721 5722 5723 5724 5725 5726 5727 5728 5729 5730 5730 5731 5730 5730 5730 5731 5731 5731 5731 5731 5731 5731 5731 5731 5731 5731 5730 5730 5730 5731 5731 5730 5730 5731 5732
5667 5668 5669 5670 5671 5672 5674 5675 5676 5677 5679 5681 5682 5683 5684 5686 5687 5688 5689 5691 5692 5693 5695 5697 5697 5698 5700 5700 5701 5702 5702 5703 5704 5705 5707 5707 5708 5709 5710 5710 5711 5712 5712 5713 5713 5714 5714 5715 5716 5716 5717 5718 5719 5720 5721 5722 5723 5724 5724 5725 5726 5727 5727 5727 5726 5727 5727 5728 5729 5729 5729 5729 5729 5729 5729 5729 5729 5728 5728 5729 5729 5729 5729 5728 5728 5729
5663 5664 5665 5667 5668 5670 5671 5673 5674 5676 5677 5678 5680 5681 5682 5683 5684 5685 5686 5688 5689 5690 5692 5693 5694 5696 5697 5697 5698 5699 5700 5701 5702 5703 5704 5705 5705 5706 5707 5707 5708 5709 5709 5710 5710 5711 5711 5712 5712 5713 5714 5715 5716 5717 5718 5719 5720 5720 5721 5721 5722 5723 5723 5723 5723 5723 5723 5724 5725 5725 5725 5726 5726 5726 5726 5726 5726 5726 5726 5727 5727 5726 5726 5726 5726 5726
5659 5660 5661 5663 5665 5667 5668 5670 5672 5673 5674 5675 5677 5678 5679 5680 5681 5682 5683 5684 5686 5687 5689 5690 5691 5692 5694 5694 5695 5696 5698 5698 5699 5700 5701 5702 5703 5703 5704 5705 5705 5706 5706 5707 5707 5707 5708 5709 5710 5711 5711 5712 5713 5713 5714 5715 5716 5716 5717 5718 5718 5719 5719 5719 5720 5720 5720 5720 5721 5721 5721 5722 5722 5723 5723 5724 5724 5724 5724 5724 5724 5723 5723 5723 5723 5723
5655 5656 5657 5659 5661 5663 5664 5666 5667 5669 5670 5671 5673 5674 5676 5676 5677 5678 5679 5680 5682 5684 5685 5686 5687 5689 5690 5691 5692 5693 5694 5696 5696 5697 5698 5699 5700 5700 5701 5701 5702 5702 5703 5703 5704 5704 5705 5705 5706 5707 5708 5708 5709 5710 5710 5711 5712 5712 5713 5714 5714 5715 5715 5715 5715 5716 5716 5716 5716 5717 5717 5718 5719 5719 5720 5721 5721 5721 5721 5721 5721 5720 5720 5720 5720 5720
5651 5652 5653 5656 5657 5658 5660 5661 5662 5663 5665 5666 5668 5669 5671 5672 5673 5674 5675 5676 5678 5679 5681 5683 5684 5685 5687 5688 5688 5689 5691 5692 5693 5694 5695 5695 5696 5697 5697 5698 5698 5699 5699 5700 5700 5701 5701 5702 5702 5703 5703 5704 5705 5706 5706 5707 5708 5708 5709 5710 5710 5710 5711 5711 5711 5711 5711 5711 5711 5712 5713 5714 5715 5715 5716 5717 5717 5717 5718 5718 5718 5718 5717 5716 5717 5717
5648 5649 5650 5653 5654 5655 5656 5657 5658 5659 5660 5661 5662 5664 5666 5667 5669 5670 5671 5672 5673 5675 5677 5679 5680 5681 5682 5683 5684 5685 5686 5687 5688 5690 5691 5692 5692 5693 5693 5694 5694 5695 5695 5696 5696 5696 5697 5698 5698 5699 5699 5700 5700 5701 5702 5703 5703 5704 5705 5705 5706 5706 5706 5706 5706 5706 5706 5706 5706 5707 5708 5708 5709 5710 5711 5711 5712 5713 5713 5714 5714 5714 5714 5713 5713 5713
5644 5645 5647 5649 5650 5651 5652 5654 5654 5655 5656 5656 5658 5659 5661 5663 5665 5666 5667 5667 5669 5671 5672 5674 5676 5677 5678 5679 5680 5681 5682 5683 5683 5684 5686 5687 5687 5688 5689 5689 5690 5690 5691 5691 5691 5692 5692 5693 5693 5694 5694 5695 5695 5696 5697 5698 5699 5699 5699 5700 5700 5700 5701 5701 5701 5701 5701 5701 5701 5702 5702 5703 5703 5704 5704 5705 5706 5707 5707 5708 5709 5709 5709 5710 5710 5710
5641 5641 5643 5645 5646 5647 5648 5650 5651 5651 5652 5653 5655 5656 5657 5659 5660 5662 5663 5664 5665 5666 5668 5670 5671 5672 5673 5674 5675 5677 5678 5678 5679 5679 5680 5681 5682 5683 5683 5684 5685 5685 5686 5686 5686 5687 5687 5688 5688 5688 5689 5689 5690 5691 5691 5692 5693 5693 5693 5693 5693 5694 5694 5695 5695 5696 5696 5696 5696 5696 5696 5697 5697 5698 5698 5699 5700 5701 5702 5702 5703 5704 5704 5705 5705 5705
5638 5638 5639 5641 5641 5642 5643 5645 5646 5647 5648 5649 5651 5652 5654 5655 5657 5658 5660 5661 5662 5663 5664 5666 5667 5668 5669 5670 5671 5672 5673 5673 5674 5675 5676 5676 5677 5678 5678 5679 5679 5680 5680 5681 5681 5682 5682 5682 5683 5684 5684 5684 5684 5685 5685 5686 5687 5687 5687 5687 5687 5687 5687 5687 5688 5689 5690 5690 5690 5690 5690 5691 5691 5692 5692 5693 5694 5695 5695 5696 5696 5697 5698 5699 5700 5700
5634 5635 5636 5636 5637 5638 5639 5640 5640 5642 5643 5645 5646 5648 5650 5651 5653 5654 5656 5657 5658 5659 5661 5663 5664 5664 5665 5665 5666 5667 5667 5668 5669 5670 5671 5671 5672 5672 5672 5673 5673 5674 5674 5675 5675 5676 5676 5677 5677 5678 5678 5678 5678 5679 5679 5680 5680 5680 5680 5680 5680 5681 5681 5681 5682 5682 5683 5683 5683 5684 5684 5685 5685 5685 5686 5687 5688 5689 5689 5690 5690 5691 5692 5693 5694 5694
5630 5631 5632 5633 5633 5633 5634 5635 5635 5637 5640 5641 5642 5644 5645 5646 5647 5649 5650 5652 5654 5655 5657 5659 5660 5660 5660 5661 5661 5662 5662 5663 5664 5665 5665 5666 5666 5666 5667 5667 5667 5668 5668 5668 5669 5669 5669 5670 5670 5670 5671 5671 5671 5671 5672 5673 5673 5674 5674 5674 5674 5674 5675 5675 5676 5676 5676 5677 5677 5677 5678 5678 5678 5679 5679 5680 5681 5682 5683 5684 5684 5685 5686 5687 5688 5688
5625 5627 5628 5629 5629 5629 5630 5630 5631 5634 5636 5637 5638 5639 5641 5642 5643 5644 5645 5647 5648 5650 5651 5653 5654 5655 5656 5656 5656 5657 5657 5658 5659 5659 5660 5660 5660 5660 5660 5660 5660 5661 5661 5661 5661 5662 5662 5662 5662 5663 5664 5664 5664 5664 5664 5665 5666 5666 5666 5667 5668 5668 5668 5669 5669 5670 5670 5670 5671 5671 5671 5672 5672 5672 5672 5673 5674 5675 5676 5677 5677 5678 5679 5680 5681 5682
5621 5622 5624 5625 5625 5625 5625 5626 5627 5629 5631 5632 5634 5635 5637 5638 5639 5639 5640 5641 5643 5644 5645 5647 5648 5649 5650 5651 5651 5651 5652 5652 5653 5653 5653 5654 5654 5654 5654 5654 5653 5653 5653 5653 5653 5654 5654 5654 5654 5655 5656 5656 5656 5657 5656 5657 5658 5658 5658 5659 5660 5660 5661 5662 5663 5663 5664 5664 5664 5664 5665 5665 5665 5665 5665 5666 5667 5667 5669 5670 5670 5671 5672 5673 5674 5675
5616 5617 5619 5619 5619 5620 5621 5621 5622 5624 5626 5628 5629 5630 5632 5633 5633 5634 5635 5636 5637 5639 5639 5641 5642 5643 5644 5645 5645 5645 5646 5646 5647 5647 5647 5647 5647 5647 5647 5646 5646 5646 5646 5645 5645 5645 5646 5646 5646 5646 5646 5646 5647 5648 5648 5649 5650 5651 5651 5652 5652 5652 5653 5654 5655 5656 5658 5657 5657 5657 5658 5658 5658 5658 5659 5659 5660 5660 5661 5662 5663 5664 5664 5665 5666 5667
5612 5613 5614 5614 5614 5615 5616 5616 5617 5619 5621 5623 5624 5625 5627 5627 5628 5629 5629 5630 5632 5634 5634 5635 5636 5637 5637 5638 5638 5639 5639 5640 5640 5640 5640 5640 5639 5639 5639 5639 5638 5638 5638 5637 5637 5637 5637 5637 5637 5637 5637 5636 5637 5638 5639 5640 5641 5642 5643 5644 5645 5645 5645 5646 5648 5649 5650 5650 5651 5651 5651 5651 5651 5652 5652 5652 5653 5653 5654 5655 5656 5657 5658 5659 5659 5660
5608 5608 5608 5609 5609 5610 5611 5611 5612 5614 5615 5617 5619 5620 5621 5621 5622 5622 5623 5626 5628 5628 5629 5630 5630 5630 5630 5630 5631 5631 5632 5632 5633 5633 5632 5632 5631 5631 5631 5631 5630 5630 5630 5629 5629 5629 5629 5629 5629 5629 5629 5628 5629 5629 5630 5630 5631 5632 5633 5634 5636 5637 5637 5638 5640 5641 5642 5643 5643 5644 5645 5645 5645 5645 5645 5646 5646 5646 5647 5648 5649 5650 5651 5652 5652 5653
5603 5603 5603 5603 5604 5605 5606 5606 5607 5608 5610 5612 5613 5614 5614 5615 5615 5616 5618 5621 5622 5621 5622 5623 5623 5623 5623 5623 5623 5623 5624 5624 5624 5624 5624 5624 5623 5623 5623 5623 5623 5622 5622 5621 5621 5621 5621 5621 5621 5621 5621 5621 5621 5621 5622 5622 5622 5623 5624 5625 5626 5627 5628 5629 5631 5632 5633 5634 5635 5636 5637 5638 5639 5639 5639 5640 5640 5640 5641 5642 5643 5644 5645 5645 5646 5646
5597 5597 5598 5598 5599 5600 5600 5601 5601 5603 5604 5606 5607 5608 5608 5608 5608 5610 5613 5614 5614 5614 5614 5615 5615 5615 5615 5615 5615 5615 5616 5616 5616 5616 5616 5616 5616 5615 5615 5615 5615 5615 5614 5614 5613 5613 5614 5614 5613 5613 5613 5613 5613 5613 5613 5614 5615 5615 5615 5616 5616 5617 5618 5620 5621 5623 5624 5625 5626 5627 5628 5629 5631 5632 5633 5633 5634 5634 5635 5636 5637 5638 5638 5639 5639 5640
5590 5591 5592 5593 5594 5595 5595 5595 5596 5597 5598 5600 5601 5602 5602 5602 5603 5604 5605 5606 5606 5607 5607 5607 5607 5608 5608 5608 5608 5608 5608 5608 5608 5608 5608 5608 5608 5607 5607 5607 5607 5606 5606 5606 5605 5605 5605 5605 5605 5605 5604 5604 5603 5604 5604 5604 5606 5607 5607 5609 5609 5608 5609 5610 5611 5613 5615 5616 5618 5619 5620 5621 5623 5624 5626 5626 5627 5628 5628 5629 5630 5632 5633 5633 5634 5634
5585 5586 5586 5587 5589 5590 5590 5590 5591 5592 5593 5594 5594 5595 5595 5596 5597 5598 5598 5598 5598 5599 5599 5600 5600 5600 5601 5601 5601 5601 5601 5601 5601 5601 5601 5600 5600 5600 5599 5599 5598 5598 5598 5597 5596 5596 5595 5595 5595 5595 5595 5595 5594 5594 5594 5594 5595 5597 5598 5599 5599 5599 5600 5601 5602 5603 5605 5607 5609 5610 5612 5613 5614 5616 5617 5618 5619 5621 5622 5623 5625 5626 5627 5627 5628 5628
5580 5581 5581 5582 5583 5584 5584 5585 5586 5587 5587 5588 5589 5589 5589 5590 5590 5591 5592 5592 5592 5592 5592 5593 5593 5593 5593 5594 5594 5594 5594 5595 5595 5595 5595 5595 5594 5593 5593 5592 5591 5591 5590 5590 5589 5588 5587 5586 5586 5586 5587 5586 5585 5584 5584 5584 5585 5586 5588 5589 5588 5589 5590 5592 5593 5594 5595 5597 5599 5601 5602 5603 5605 5607 5608 5609 5611 5613 5614 5618 5620 5619 5619 5620 5621 5621
5575 5576 5576 5577 5577 5578 5579 5580 5581 5582 5583 5583 5584 5584 5584 5584 5585 5585 5586 5586 5586 5586 5586 5586 5586 5586 5586 5586 5587 5587 5587 5588 5588 5588 5588 5588 5588 5587 5586 5585 5584 5583 5582 5582 5581 5580 5579 5578 5578 5578 5578 5578 5576 5575 5574 5574 5574 5575 5577 5577 5577 5578 5579 5581 5583 5584 5586 5587 5589 5590 5592 5593 5595 5597 5598 5600 5603 5604 5605 5609 5611 5611 5610 5611 5613 5613
5570 5571 5572 5572 5573 5574 5574 5575 5576 5577 5578 5579 5580 5580 5580 5580 5580 5580 5581 5581 5581 5581 5581 5580 5580 5580 5580 5581 5581 5581 5581 5582 5582 5582 5581 5581 5580 5579 5578 5577 5576 5575 5574 5573 5572 5571 5570 5570 5570 5569 5568 5568 5567 5564 5564 5564 5563 5564 5565 5566 5566 5566 5567 5569 5571 5573 5575 5577 5578 5580 5581 5583 5585 5587 5588 5590 5593 5595 5596 5598 5601 5601 5601 5603 5604 5605
5566 5567 5568 5568 5568 5569 5570 5570 5571 5572 5573 5574 5575 5575 5575 5575 5575 5576 5576 5576 5576 5576 5576 5575 5575 5575 5575 5575 5575 5574 5575 5575 5575 5574 5574 5573 5571 5570 5569 5568 5568 5567 5566 5565 5563 5562 5561 5560 5560 5559 5558 5558 5557 5554 5554 5554 5553 5553 5553 5554 5554 5555 5555 5557 5559 5561 5563 5565 5567 5568 5571 5572 5574 5576 5578 5580 5583 5584 5586 5589 5590 5590 5592 5594 5595 5596
5562 5563 5563 5564 5564 5565 5565 5566 5567 5567 5568 5568 5569 5570 5570 5570 5570 5570 5571 5571 5571 5571 5571 5570 5570 5569 5569 5569 5568 5568 5567 5566 5566 5566 5565 5564 5563 5562 5561 5560 5560 5558 5557 5555 5554 5552 5551 5550 5550 5549 5549 5548 5547 5545 5544 5544 5543 5542 5542 5542 5542 5542 5543 5545 5546 5548 5551 5554 5555 5556 5559 5561 5563 5565 5567 5570 5573 5575 5577 5579 5580 5580 5583 5585 5586 5587
5559 5559 5560 5560 5561 5561 5562 5562 5562 5563 5563 5563 5564 5564 5565 5565 5565 5565 5565 5565 5565 5565 5565 5565 5564 5564 5563 5562 5562 5561 5560 5559 5558 5557 5557 5556 5554 5554 5553 5552 5551 5549 5547 5546 5544 5543 5542 5541 5540 5539 5539 5538 5536 5535 5534 5533 5532 5531 5530 5530 5530 5530 5531 5533 5534 5536 5539 5542 5544 5546 5548 5549 5552 5554 5556 5558 5560 5563 5566 5569 5569 5571 5573 5575 5576 5577
5556 5556 5556 5556 5557 5557 5558 5558 5558 5559 5559 5559 5560 5560 5560 5560 5560 5560 5560 5560 5560 5560 5559 5559 5558 5557 5557 5556 5555 5554 5553 5552 5550 5550 5549 5548 5546 5545 5544 5543 5541 5540 5538 5537 5535 5534 5532 5530 5529 5528 5527 5526 5524 5523 5522 5522 5521 5519 5518 5517 5517 5517 5519 5520 5522 5525 5528 5530 5532 5534 5536 5538 5540 5543 5546 5547 5549 5552 5555 5559 5561 5563 5565 5567 5568 5569